POSAT

导读

POSAT 2卫星定于2025年1月14日发射,目前发射国家尚未最终确定(标注为TBD)。作为一款规划中的航天载荷,它的成功入轨将为相关空间技术验证、对地观测或科学实验等任务提供全新平台,后续其发射细节与任务目标将随着筹备工作推进逐步公布,备受航天领域关注。

Basic Information
目录编号:
63488
目录名称:
POSAT 2
国际标识:
2025-009DR
轨道中心:
EARTH
卫星名称:
POSAT 2
卫星全名:
POSAT
卫星状态:
在轨 (已飞行598 天)
发射日期:
2025-01-14 UTC
国别 :
(PT)
星等 :
--
Orbit Information
数据来源 国际轨道数据
星历时间: 2026-09-04T13:50:49+0800
11小时前
查看轨道信息
半长轴: 6900.124km
偏心率: 0.0004852
轨道倾角: 97.478°
近地点辐角 219.276°
升交点赤经 320.912°
平近点角 140.812°
近地点: 518.639km
远地点: 525.335km
周期: 95.070分钟
每日圈数: 15.146682
Detailed Information
使用方式:
暂无
2D Orbit Map
3D Orbit Map
Orbit Altitude Analysis Chart
Orbit Inclination Analysis Chart
Orbit Comprehensive Analysis Chart
View Comprehensive Chart
Conjunction Data List
Event ID Objects TCA Miss Dist (km) Collision Risk Probability Collision Risk Index (CRI) Action
CDM_260827-222704-973806-348823
POSAT 2 (63488)
2026-08-27T
22:27:11+0000
1.826 km
极远距离
3.552668E-6 低风险 0.46